Weather in Sardoba

Uzbekistan     40°32′36″N   68°24′40″E
temp.,
°C
wind,
m/s
gust,
m/s
humid.,
%
clouds,
%
prec.,
mm/h
press.,
hPa
HPBL,
m
24 may, tue
tue2423:00+19e33520 0.0 100946
02:00+17ese23580 0.0 100857
05:00+16e22600 0.0 100727
08:00+20e23480 0.0 1008380
11:00+26e34320 0.0 10061180
14:00+29e34240 0.0 10041493
17:00+30ne32230 0.0 10041433
20:00+26nne22320 0.0 100413
25 may, wed
wed2523:00+23ne22390 0.0 100618
02:00+22ene11403 0.0 100611
05:00+21ene11445 0.0 100611
08:00+26se233364 0.0 1007249
11:00+31e34240 0.0 1007941
14:00+36e33180 0.0 10061614
17:00+36nne32160 0.0 10061643
20:00+30ene33255 0.0 100640
26 may, thu
thu2623:00+27ene22300 0.0 100612
02:00+25nw123215 0.0 100711
05:00+24nnw1235100 0.0 100812
08:00+27wsw573694 0.0 1011373
11:00+30nw442798 0.1 10111102
14:00+33nnw442215 0.0 10091654
17:00+33wnw3323100 0.0 10101497
20:00+28nw2231100 0.0 100923
27 may, fri
fri2723:00+26nnw3436100 0.0 100984
02:00+23w3438100 0.0 101058
05:00+23wnw4834100 0.0 1011226
08:00+23wnw573898 0.0 1013527
11:00+27nw5530100 0.0 1012977
14:00+27wsw4430100 0.0 10121557
17:00+28ssw3328100 0.0 1012991
20:00+24ssw4946100 0.0 1013280
28 may, sat
sat2823:00+21nnw9153899 0.0 1016667
02:00+19nw125484 0.0 1018108
05:00+19sse125470 0.0 1019137
08:00+21e015082 0.0 1020582
11:00+25n23350 0.0 10181643
14:00+28n43250 0.0 10162444
17:00+28n44210 0.0 10162708
20:00+24nne47290 0.0 1016137